Clarksburg, WV

11:23 PM EST on December 08, 2019 (GMT -0500)
Benedum

Weather History for KCKB - October, 2019

Change the Weather History Date:

Monday, October 7, 2019

  Actual Average Record
Temperature  
Mean Temperature 63 °F -  
Max Temperature 70 °F 67 °F 88 °F (2018)
Min Temperature 55 °F 43 °F 25 °F (1935)
Degree Days  
Heating Degree Days 2    
Month to date heating degree days 3  
Growing Degree Days 12 (Base 50)    
Moisture  
Dew Point 56 °F    
Average Humidity 83    
Maximum Humidity 93    
Minimum Humidity 73    
Precipitation  
Precipitation 0.73 in - - ()
Month to date precipitation 0.74  
Year to date precipitation 32.81  
Sea Level Pressure  
Sea Level Pressure 30.14 in    
Wind  
Wind Speed 7 mph (North)    
Max Wind Speed 18 mph    
Max Gust Speed 26 mph    
Visibility 7 miles    
Events Rain    
Averages and records for this station are not official NWS values.
T = Trace of Precipitation, MM = Missing Value Source: NWS Daily Summary

Daily Weather History Graph

Daily Weather History Graph

Search for Another Location

Airport or City:

Astronomy

Oct. 07, 2019 Rise Set
Actual Time 7:22 AM EDT 6:54 PM EDT
Civil Twilight 6:55 AM EDT 7:21 PM EDT
Nautical Twilight 6:24 AM EDT 7:52 PM EDT
Astronomical Twilight 5:53 AM EDT 8:23 PM EDT
Moon 4:12 PM EDT (10/7) 1:16 AM EDT (10/7)
Length of Visible Light 12h 25m
Length of Day
11h 31m
Waxing Gibbous, 69% of the Moon is Illuminated
Oct 7
Waxing Gibbous
Oct 13
Full
Oct 21
Last Quarter
Oct 27
New
Nov 4
First Quarter

Hourly Weather History & Observations

Time (EDT) Temp. Dew Point Humidity Pressure Visibility Wind Dir Wind Speed Gust Speed Precip Events Conditions
12:53 AM 68.0 °F 61.0 °F 78% 30.06 in 10.0 mi SSW 3.5 mph - N/A   Overcast
1:53 AM 69.1 °F 61.0 °F 75% 30.04 in 10.0 mi SSW 6.9 mph - N/A   Overcast
2:53 AM 69.1 °F 61.0 °F 75% 30.04 in 10.0 mi SW 6.9 mph - 0.00 in Rain Light Rain
3:18 AM 66.9 °F 62.1 °F 84% 30.11 in 2.5 mi West 16.1 mph 26.5 mph 0.11 in Rain Heavy Rain
3:26 AM 66.0 °F 61.0 °F 84% 30.11 in 5.0 mi West 13.8 mph 20.7 mph 0.12 in Rain Light Rain
3:53 AM 64.0 °F 60.1 °F 87% 30.08 in 5.0 mi Variable 3.5 mph - 0.15 in Rain Light Rain
4:04 AM 64.0 °F 60.1 °F 87% 30.12 in 8.0 mi SW 3.5 mph - 0.01 in Rain Light Rain
4:53 AM 63.0 °F 60.1 °F 90% 30.09 in 4.0 mi Calm Calm - 0.06 in Rain Light Rain
5:32 AM 62.1 °F 57.9 °F 86% 30.13 in 6.0 mi ENE 3.5 mph - 0.10 in Rain Rain
5:43 AM 62.1 °F 57.9 °F 86% 30.13 in 7.0 mi East 4.6 mph - 0.12 in Rain Light Rain
5:53 AM 62.1 °F 59.0 °F 90% 30.10 in 8.0 mi East 3.5 mph - 0.13 in Rain Light Rain
6:20 AM 63.0 °F 59.0 °F 87% 30.12 in 7.0 mi Calm Calm - 0.05 in Rain Light Rain
6:53 AM 63.0 °F 60.1 °F 90% 30.09 in 9.0 mi SSE 3.5 mph - 0.07 in Rain Light Rain
7:25 AM 64.0 °F 61.0 °F 90% 30.12 in 10.0 mi Calm Calm - 0.03 in Rain Light Rain
7:53 AM 64.0 °F 60.1 °F 87% 30.09 in 2.0 mi NNW 5.8 mph - 0.04 in Rain Light Rain
8:12 AM 62.1 °F 57.9 °F 86% 30.13 in 1.5 mi North 5.8 mph - 0.03 in Rain Rain
8:21 AM 62.1 °F 57.9 °F 86% 30.14 in 2.0 mi North 6.9 mph - 0.04 in Rain Rain
8:35 AM 61.0 °F 57.9 °F 90% 30.14 in 2.0 mi North 6.9 mph - 0.06 in Rain Light Rain
8:47 AM 60.8 °F 57.2 °F 88% 30.15 in 1.8 mi NNW 5.8 mph - 0.06 in Rain Light Rain
8:48 AM 61.0 °F 57.9 °F 90% 30.12 in 1.8 mi NNW 5.8 mph - 0.06 in Rain Light Rain
9:12 AM 59.0 °F 55.0 °F 87% 30.15 in 2.5 mi North 12.7 mph - 0.03 in Rain Light Rain
9:21 AM 59.0 °F 55.0 °F 87% 30.15 in 5.0 mi North 9.2 mph - 0.03 in Rain Light Rain
9:28 AM 59.0 °F 55.0 °F 87% 30.15 in 8.0 mi North 10.4 mph 16.1 mph 0.03 in Rain Light Rain
9:53 AM 59.0 °F 54.0 °F 83% 30.12 in 10.0 mi North 11.5 mph - 0.03 in Rain Light Rain
11:53 AM 59.0 °F 55.0 °F 87% 30.13 in 7.0 mi North 8.1 mph - 0.03 in Rain Light Rain
12:53 PM 59.0 °F 55.0 °F 87% 30.13 in 5.0 mi North 9.2 mph - 0.01 in Rain Light Rain
1:53 PM 59.0 °F 54.0 °F 83% 30.13 in 10.0 mi North 9.2 mph 19.6 mph 0.01 in Rain Light Rain
2:24 PM 59.0 °F 54.0 °F 83% 30.15 in 6.0 mi North 11.5 mph - 0.00 in Rain Light Rain
2:48 PM 59.0 °F 53.6 °F 82% 30.15 in 6.0 mi North 8.1 mph - 0.00 in Rain Light Rain
2:53 PM 57.9 °F 53.1 °F 84% 30.13 in 5.0 mi North 12.7 mph - 0.00 in Rain Light Rain
3:53 PM 57.9 °F 53.1 °F 84% 30.14 in 6.0 mi North 9.2 mph - 0.07 in Rain Light Rain
4:35 PM 57.9 °F 53.1 °F 84% 30.16 in 9.0 mi NE 5.8 mph - 0.01 in Rain Light Rain
4:53 PM 57.9 °F 53.1 °F 84% 30.13 in 10.0 mi ENE 3.5 mph - 0.01 in Rain Light Rain
5:48 PM 57.2 °F 53.6 °F 88% 30.13 in 10.0 mi East 6.9 mph - 0.03 in Rain Light Rain
5:53 PM 57.9 °F 54.0 °F 87% 30.11 in 10.0 mi ENE 3.5 mph - 0.03 in Rain Light Rain
6:05 PM 57.9 °F 54.0 °F 87% 30.14 in 10.0 mi NE 3.5 mph - 0.00 in   Overcast
6:29 PM 57.9 °F 54.0 °F 87% 30.16 in 10.0 mi WNW 4.6 mph - 0.00 in   Overcast
6:53 PM 57.9 °F 54.0 °F 87% 30.14 in 10.0 mi NW 6.9 mph - 0.00 in   Overcast
7:16 PM 57.9 °F 54.0 °F 87% 30.17 in 10.0 mi North 4.6 mph - 0.00 in   Overcast
7:53 PM 57.9 °F 54.0 °F 87% 30.16 in 10.0 mi NNW 3.5 mph - 0.00 in   Overcast
8:02 PM 57.9 °F 53.1 °F 84% 30.19 in 10.0 mi North 5.8 mph - N/A   Overcast
8:17 PM 57.0 °F 53.1 °F 87% 30.19 in 10.0 mi North 5.8 mph - 0.00 in Rain Light Rain
8:51 PM 57.2 °F 53.6 °F 88% 30.19 in 10.0 mi NE 5.8 mph - 0.01 in Rain Light Rain
8:53 PM 57.0 °F 53.1 °F 87% 30.17 in 10.0 mi NE 5.8 mph - 0.01 in Rain Light Rain
9:36 PM 57.0 °F 53.1 °F 87% 30.21 in 8.0 mi NNW 4.6 mph - 0.01 in Rain Light Rain
9:53 PM 57.0 °F 53.1 °F 87% 30.21 in 9.0 mi NNW 8.1 mph - 0.02 in Rain Light Rain
10:17 PM 55.9 °F 52.0 °F 87% 30.24 in 10.0 mi NNW 5.8 mph - 0.00 in   Scattered Clouds
10:53 PM 55.9 °F 52.0 °F 87% 30.21 in 10.0 mi NNE 4.6 mph - 0.00 in   Partly Cloudy
11:43 PM 55.9 °F 52.0 °F 87% 30.23 in 9.0 mi NW 4.6 mph - N/A   Mostly Cloudy
11:53 PM 55.9 °F 52.0 °F 87% 30.21 in 9.0 mi North 8.1 mph - N/A   Mostly Cloudy